Find Starlink 3826

NORAD ID: 52347 Int'l Des: 2022-045 Owner: SPXS Country: US Constellation: starlink operational
LEOCIRCULAR

現在のビュー

3D地球を読み込み中...

About Starlink 3826

Starlink 3826 (NORAD 52347) is a starlink constellation satellite (v1.5) launched Apr 29, 2022 by SPXS of US. It operates in LEO, CIRCULAR orbit with a mass of 297.00 kg.

Starlink 3826について

説明を読み込み中...

次回通過

Passes for default location (London). Set your location on the main map for personalized predictions.

高度履歴

Loading altitude history...

軌道要素

1 52347U 22045S 26164.10502833 .00000020 00000-0 19366-4 0 9996
2 52347 53.1611 130.7234 0001399 87.8175 272.2976 15.08834393230181
Epoch: Jun 13, 2026 • Age: 11 hours

現在のステータス

高度 540.0 km
速度 7.60 km/s
衛星直下点 22.82°N, 38.35°E
打ち上げ日 Apr 29, 2022
運用期間 4.1 years
タイプ internet

技術仕様

分類 Payload
質量 297.00 kg
乾燥質量 275.00 kg
総質量 297.00 kg
長さ 0.20 m
直径 2.80 m
スパン 9.00 m
形状 Box + pan
製造者 SPXS
バスタイプ Starlink
フェーズステータス In Orbit
所有者/国 SPXS/US

Most Searched